Theta_e
305 304 304 304 303 303 301 303 306 304 304 306 308 313 314 311 313 317 319 320 323 321 319 317 318 318 318 317 318 319 319 320 323 321 321 320 320 321 323 324 322 323 326 323
305 305 305 304 303 302 302 303 305 304 304 306 308 310 312 312 314 315 319 320 321 322 322 319 318 318 318 317 319 319 320 321 323 321 320 320 320 321 320 322 322 325 330 323
303 305 305 305 304 302 302 303 305 306 305 307 308 309 312 311 312 313 317 319 320 323 323 320 319 318 317 317 318 318 320 320 321 321 319 319 321 321 321 322 326 324 325 322
301 303 305 305 304 302 302 303 305 306 308 308 308 309 309 311 313 313 315 319 320 322 322 321 320 317 319 318 317 318 320 320 320 318 317 317 318 318 321 322 323 323 323 321
301 301 304 304 304 302 302 303 307 308 307 307 307 311 311 310 312 312 313 318 319 320 320 319 321 321 322 320 321 320 320 319 321 320 319 319 318 319 319 321 320 321 321 320
301 301 299 304 303 302 301 302 305 308 307 307 308 311 309 311 311 312 311 314 315 319 319 319 318 317 318 318 322 322 322 321 321 320 320 320 323 321 320 321 322 322 322 321
301 301 302 302 303 301 300 302 305 308 309 309 308 307 307 308 310 313 312 312 315 315 316 315 316 317 319 320 318 321 323 323 323 323 320 329 319 319 320 321 321 321 320 320
301 301 302 300 303 301 301 302 304 306 310 308 307 307 307 308 309 311 312 314 314 315 314 314 313 314 317 320 321 322 322 323 324 330 323 320 319 317 319 321 321 320 320 319
301 301 301 299 302 301 301 302 303 308 310 309 307 308 307 310 311 313 313 311 316 316 318 319 318 312 313 321 322 316 318 320 327 321 324 329 320 319 318 318 324 319 319 318
302 301 301 300 302 300 301 302 303 306 307 306 307 310 309 308 311 313 312 314 316 315 319 324 320 317 314 319 326 322 320 321 327 326 328 324 320 317 316 322 324 319 318 318
301 301 300 303 301 301 301 301 303 305 307 307 307 309 310 309 311 313 313 315 317 319 319 319 319 325 322 319 321 323 323 325 326 325 330 330 316 315 321 323 320 319 319 319
301 300 301 301 301 301 300 301 302 304 306 305 305 304 306 307 309 312 314 312 314 315 317 320 319 325 321 323 325 320 325 323 326 324 325 323 318 321 319 321 320 318 319 318
300 301 302 302 302 300 300 301 302 302 305 303 302 305 305 305 308 310 312 313 311 315 315 320 323 327 323 328 324 323 320 316 323 322 321 321 320 319 317 316 318 317 317 317
301 302 301 301 302 299 300 301 301 301 303 303 304 305 307 306 308 310 310 312 313 316 317 321 321 325 319 325 321 323 321 316 321 322 322 318 319 319 318 316 314 314 315 316
302 302 301 301 299 299 299 298 299 300 302 305 304 303 304 304 304 306 312 312 315 316 319 318 319 318 319 318 319 323 318 320 323 327 324 323 322 320 319 317 315 314 315 314
300 302 302 299 298 298 298 299 298 300 300 303 306 307 307 308 307 309 312 313 313 315 316 319 318 317 320 325 322 317 318 318 319 320 316 318 315 313 317 316 314 314 313 313
300 300 299 298 298 299 300 301 300 299 300 301 304 308 308 308 310 313 314 314 316 315 316 318 320 320 318 322 324 318 319 318 317 314 312 315 312 314 310 312 311 308 310 308
300 299 298 298 298 298 300 301 301 300 301 304 307 308 309 310 315 315 316 317 316 315 316 315 319 318 318 322 319 319 318 314 314 313 311 310 310 309 308 307 306 306 305 304
297 298 298 298 299 299 299 300 300 300 305 306 305 309 315 310 310 311 309 313 318 315 318 319 319 320 321 318 317 315 314 313 313 308 308 307 308 305 303 303 304 305 301 301
297 298 299 299 299 299 303 301 301 304 306 307 308 307 306 308 311 314 310 307 311 316 316 315 319 321 314 310 310 310 310 308 307 308 307 306 304 303 303 303 302 301 300 299
299 300 301 301 300 302 304 303 304 305 305 307 307 308 306 308 313 313 312 311 307 316 317 320 319 320 309 306 307 307 306 306 306 306 306 305 305 303 301 300 300 299 297 297
301 303 302 303 304 305 305 304 304 306 308 308 308 308 307 309 311 314 310 315 310 318 310 320 319 306 302 303 304 304 304 304 303 303 302 302 301 300 299 297 295 292 289 288
303 304 304 305 303 306 307 310 310 309 303 304 305 308 308 309 309 308 309 314 316 306 312 307 302 300 299 298 298 298 297 297 297 296 295 294 294 293 291 290 289 288 288 287
301 303 303 304 303 302 302 302 303 302 299 301 303 304 306 303 306 304 314 307 307 312 309 303 298 297 296 296 295 294 293 292 292 291 290 289 288 288 288 288 288 287 287 286
297 298 301 300 297 295 295 295 298 297 296 299 303 303 304 304 305 303 307 308 304 301 299 297 294 296 295 294 293 292 291 290 290 289 288 288 287 287 287 286 286 285 284 283
293 290 291 291 294 292 291 291 293 293 294 296 299 303 304 300 298 298 297 300 295 293 290 290 293 293 292 292 291 290 290 289 289 288 287 286 285 285 284 283 283 283 282 282
292 291 288 288 289 288 289 290 290 291 298 300 297 296 296 297 295 293 291 291 289 288 287 287 290 291 291 290 290 289 289 288 287 286 285 285 284 284 283 283 282 281 281 280
Wind_Speed
51 50 48 49 47 42 36 14 7 24 37 10 6 17 32 8 22 16 10 7 6 8 12 16 16 22 16 18 19 20 15 9 8 14 5 2 7 9 10 6 6 3 5 8
52 51 51 52 53 50 35 8 3 32 33 14 13 30 29 26 18 25 14 11 9 6 5 7 17 15 15 13 20 19 13 10 11 10 6 4 8 10 10 6 2 11 7 5
46 49 53 56 59 56 38 6 6 5 11 18 29 29 25 30 22 21 18 11 7 9 6 8 3 12 6 11 18 5 16 13 16 12 13 8 8 12 14 14 7 10 11 13
46 48 54 59 64 61 41 8 7 10 15 18 29 27 24 25 23 27 18 19 15 13 6 5 6 5 7 6 6 8 11 15 16 16 16 15 17 15 14 16 16 13 13 14
49 48 49 63 67 65 25 7 8 14 15 29 32 29 28 29 32 23 24 19 23 13 13 5 2 4 1 6 6 9 8 12 10 12 12 13 15 16 16 18 17 13 17 18
53 53 50 53 71 65 10 14 18 14 16 28 23 24 32 28 25 31 22 23 15 19 20 3 7 6 8 8 2 10 8 9 7 14 10 9 10 14 16 15 14 16 16 16
55 54 53 53 72 69 26 30 8 10 12 17 22 31 31 30 24 26 20 18 18 7 7 6 5 7 5 8 13 10 6 9 6 6 4 8 12 4 16 18 18 17 16 17
56 54 53 52 70 70 32 23 13 10 10 18 22 29 31 23 19 22 23 11 12 7 3 4 5 4 7 6 7 12 12 8 4 5 9 10 5 6 9 12 18 15 18 17
57 54 53 50 69 69 32 27 28 5 13 16 23 19 22 21 19 17 23 10 6 9 4 5 7 8 11 8 5 2 7 7 8 4 7 9 9 13 10 4 16 9 12 14
52 52 52 52 68 68 33 22 22 10 9 10 13 15 18 21 17 16 16 15 8 9 5 4 7 8 10 14 7 6 5 4 11 10 7 6 3 10 12 9 14 3 8 10
48 48 46 61 66 63 35 20 23 14 5 5 3 1 15 16 18 15 15 14 10 7 9 7 7 5 7 11 10 7 9 9 5 7 6 10 12 11 11 12 2 6 8 10
47 47 52 64 60 51 32 17 17 12 3 3 5 3 11 10 21 15 15 12 17 7 8 6 4 2 2 7 10 5 4 7 5 9 6 4 20 14 17 7 6 7 9 11
44 45 60 58 58 44 27 18 20 13 3 1 3 2 3 14 15 16 10 11 10 15 7 5 4 5 5 5 10 10 6 4 4 2 9 12 13 15 6 11 9 7 9 14
43 52 54 53 47 34 30 19 18 15 4 3 4 5 2 9 16 14 14 7 9 3 7 6 4 3 6 6 8 7 8 8 7 7 12 4 11 14 15 10 7 7 10 17
52 51 50 48 42 33 26 19 9 12 3 1 5 6 13 16 14 16 14 16 9 8 4 3 5 5 3 1 2 5 7 8 6 7 10 9 15 7 14 15 15 13 15 17
45 41 46 46 40 34 21 3 3 7 3 2 2 5 5 9 13 13 13 13 11 7 6 5 4 3 4 6 12 14 16 12 13 8 2 6 2 6 9 14 12 12 14 15
48 47 45 41 34 27 5 3 7 23 13 3 3 2 3 11 9 7 7 10 9 10 9 6 9 4 4 3 9 8 14 16 13 6 5 5 7 5 9 10 9 9 11 14
44 40 36 30 27 11 0 3 13 28 8 4 3 3 4 9 4 3 5 7 7 8 5 1 8 3 2 6 9 14 11 4 7 8 3 2 3 4 4 12 15 13 14 14
38 36 33 19 4 2 3 2 25 21 6 4 4 3 0 3 2 2 2 2 4 3 5 6 5 6 8 2 5 4 4 4 5 4 5 6 8 5 6 7 8 14 12 14
39 29 5 2 4 8 17 9 3 3 3 3 2 4 2 4 3 2 3 1 3 4 4 6 4 7 3 5 6 7 5 3 6 4 3 4 8 12 11 12 8 9 13 14
10 2 2 5 15 10 1 3 4 4 3 4 3 4 3 2 2 3 1 3 1 3 4 7 5 4 5 9 7 4 2 1 1 2 1 5 7 12 13 11 13 12 16 14
3 9 15 7 4 3 3 4 3 4 2 4 4 3 7 4 3 2 1 1 1 1 3 4 4 3 10 9 6 6 5 4 6 6 7 7 9 10 12 14 15 19 25 25
6 4 3 2 0 4 4 6 3 2 0 1 2 3 1 2 1 4 2 3 1 1 2 3 4 8 8 8 7 8 8 9 10 12 15 16 15 17 15 14 20 26 24 22
3 2 3 3 2 5 3 4 1 2 2 1 1 2 2 1 2 2 1 2 2 3 4 4 7 13 9 7 6 7 9 10 12 13 14 14 15 16 19 21 23 24 21 20
5 5 4 5 4 4 6 7 6 4 3 2 2 3 3 4 4 4 2 4 5 6 5 6 10 10 9 8 8 8 9 10 11 11 14 15 19 19 22 23 24 26 24 22
3 7 5 8 4 6 6 5 4 3 3 1 3 3 4 6 3 5 7 4 5 4 5 9 9 9 9 9 10 11 11 12 14 19 21 22 22 22 23 26 26 23 22 20
5 4 8 7 3 5 6 6 6 3 1 3 4 6 7 3 4 4 5 4 4 6 7 8 12 11 11 11 12 14 18 19 22 23 24 23 23 25 25 20 20 21 21 21
Wind_Direction
232 227 219 212 205 199 191 184 212 174 167 181 229 224 213 204 209 208 218 233 218 225 192 210 214 211 211 196 189 199 207 228 198 202 112 316 259 232 216 241 223 251 288 264
228 222 216 206 198 189 178 190 152 172 175 184 214 233 227 226 212 209 200 209 214 191 226 214 218 212 199 180 189 201 175 218 208 193 180 187 218 208 230 240 243 237 247 261
228 218 213 204 192 189 179 169 167 170 200 211 199 217 223 215 222 214 212 209 203 196 220 225 214 222 173 192 205 169 181 217 220 224 222 206 203 217 213 214 222 244 231 263
225 219 213 200 189 188 178 183 184 185 187 205 208 208 210 214 205 217 211 215 213 203 201 196 208 218 173 163 179 191 199 225 229 244 249 248 240 233 210 215 230 243 251 264
219 215 215 196 185 184 184 177 180 178 182 199 215 197 214 210 209 196 208 215 203 211 218 206 162 135 213 197 182 194 199 220 210 229 234 232 237 238 239 226 245 249 263 268
215 211 211 206 182 181 175 194 218 187 210 197 203 214 199 219 208 220 219 207 206 213 231 267 329 297 280 292 264 198 195 208 200 239 224 226 244 231 230 227 221 232 253 270
209 206 202 203 182 181 182 190 184 198 200 193 203 212 208 204 211 215 220 221 216 187 111 64 317 316 342 270 241 223 194 197 197 228 187 226 251 222 227 232 238 234 254 269
203 200 197 200 182 179 185 181 190 201 214 195 199 211 207 204 210 215 210 214 223 135 164 205 257 303 300 260 238 217 218 185 176 180 215 259 179 184 186 200 248 239 254 268
192 192 191 195 178 179 180 182 192 222 201 212 203 191 208 197 193 197 211 220 148 133 151 187 208 209 205 250 186 173 196 246 228 173 221 231 244 198 196 191 270 257 247 257
181 185 185 188 177 177 174 179 187 202 210 216 201 198 197 196 188 192 186 202 192 191 168 198 210 217 207 208 216 175 165 190 208 214 238 242 192 161 158 203 258 174 222 231
175 176 182 177 176 174 170 167 187 186 197 140 125 359 214 191 204 185 174 183 204 185 189 207 195 198 214 217 217 177 182 176 178 208 222 239 151 146 203 230 182 209 205 204
168 174 176 172 173 171 168 153 173 164 100 63 35 55 292 297 195 184 176 187 175 184 188 204 205 159 171 210 218 184 214 224 204 210 215 197 182 218 216 203 206 197 199 185
168 174 166 169 168 162 154 144 159 159 158 80 330 195 315 283 270 252 188 206 189 195 198 162 210 201 164 192 224 220 215 173 220 194 235 231 219 223 221 206 202 191 198 180
162 156 162 163 160 151 149 139 153 150 128 211 262 199 203 249 243 249 240 279 193 235 199 218 206 194 206 218 241 215 227 157 208 236 260 274 247 235 218 203 202 190 183 177
150 155 157 152 140 137 124 118 139 155 164 187 226 237 236 262 269 270 239 225 222 210 182 183 216 231 225 245 260 228 188 198 203 228 233 223 262 279 209 209 202 187 171 174
144 148 152 137 137 134 124 81 221 163 164 62 313 343 242 232 225 246 223 216 224 225 226 228 240 152 214 217 234 232 214 216 222 246 157 228 24 295 189 210 199 187 186 182
124 122 127 129 133 138 138 130 141 179 157 166 273 251 212 216 221 208 200 208 206 216 227 235 223 198 217 251 252 238 232 227 222 204 153 238 190 248 189 159 166 160 163 164
126 131 132 139 142 148 228 333 183 155 161 171 237 246 250 195 168 140 180 180 183 200 205 293 229 169 223 245 252 247 243 217 219 207 190 350 62 131 174 147 145 155 152 150
129 132 126 119 118 104 268 91 155 169 198 193 193 232 212 316 70 115 117 151 179 129 195 207 185 196 223 236 252 300 298 252 272 177 199 143 129 132 158 141 159 151 149 148
128 121 91 120 196 155 128 118 164 215 260 238 236 144 291 323 195 128 127 25 152 166 203 153 215 228 79 14 324 301 282 217 165 179 230 194 137 154 166 150 151 148 141 138
132 101 128 128 151 171 201 138 185 169 212 205 228 179 187 287 262 125 233 143 86 195 178 190 188 212 3 347 348 6 24 161 294 289 230 175 164 154 141 146 133 138 138 137
218 115 115 128 193 185 180 195 174 215 245 155 139 204 192 204 232 131 80 124 198 205 130 165 138 35 354 352 2 16 18 38 56 60 82 94 119 132 145 135 128 119 115 120
122 79 83 205 140 205 212 198 180 202 91 131 164 161 140 166 29 73 96 204 176 286 48 70 43 335 345 350 9 21 37 62 78 80 81 82 85 93 109 106 108 109 110 115
61 61 85 359 37 10 346 313 6 13 283 308 130 103 112 133 92 61 192 47 12 64 52 47 354 343 343 1 19 54 50 57 69 73 78 78 79 81 84 91 97 102 99 100
36 351 37 51 31 11 334 329 333 358 313 283 100 71 45 39 70 20 23 61 64 38 23 350 328 349 4 24 40 54 63 70 74 77 77 77 83 83 78 80 86 90 89 89
62 37 359 353 15 349 352 341 308 302 322 63 43 77 80 52 41 53 19 61 47 10 335 329 333 21 32 45 53 64 69 70 74 74 80 79 74 77 79 73 73 78 87 91
37 46 27 3 342 324 320 315 311 273 255 60 62 52 47 47 58 52 21 43 8 337 356 359 18 38 45 51 56 60 66 69 71 74 72 74 75 76 75 76 76 81 83 87